Location: Oshawa
(43.9000°N, 78.8670°W)
Time: 02:21:24
(UTC-05:00)

Daily predictions for brighter satellites

Satellite Brightness Start Highest point End
(mag) Time Altitude Azimuth Time Altitude Azimuth Time Altitude Azimuth
Cosmos 2369 Rocket 4.1 03:51:43 24° NE 03:52:01 24° NE 03:56:29 10° ESE
Lacrosse 5 rocket 4.2 04:07:16 16° NE 04:07:16 16° NE 04:08:12 10° NE
Cosmos 1943 Rocket 4.1 04:12:50 19° NNE 04:15:07 24° NE 04:19:39 10° ESE
ATLAS 5 CENTAUR R/B 3.3 04:31:25 29° SE 04:32:28 32° ESE 04:36:51 10° NE
PAYLOAD B 4.4 04:31:24 10° NNE 04:36:17 68° NNE 04:36:17 68° NNE
Cosmos 2237 Rocket 4.5 04:43:11 11° N 04:43:11 11° N 04:43:33 10° N
GEOS 3 Rocket 4.3 04:36:20 10° NNE 04:40:12 45° N 04:40:12 45° N
Okean 1-7 4.0 04:46:20 36° NE 04:47:28 45° ENE 04:51:38 10° SSE
CZ-4B DEB 4.1 04:44:00 10° NNE 04:49:26 79° NW 04:49:26 79° NW
Cosmos 1447 Rocket 4.4 04:45:35 10° S 04:51:54 89° E 04:58:12 10° N
USA 267 4.4 04:48:32 10° NE 04:53:54 28° N 04:55:14 26° NNW
IRS-1C Rocket 3.9 04:52:52 10° NNE 04:58:10 87° WNW 05:03:25 10° SSW
USA 32 4.0 05:02:29 10° SSW 05:08:16 58° NW 05:12:52 10° N
NOSS 3-1 (C) 4.1 05:08:24 41° WNW 05:10:59 57° WSW 05:19:12 10° SSE
Cosmos 1606 4.1 05:18:20 27° SSW 05:18:20 27° SSW 05:20:12 10° S
Cosmos 1441 Rocket 3.4 05:16:44 41° NNE 05:17:51 66° ENE 05:21:34 10° SSE
SL-16 R/B 3.7 05:20:04 20° NNW 05:20:04 20° NNW 05:22:39 10° N
SKYMED 2 3.7 05:16:06 10° SSE 05:20:25 72° ENE 05:23:56 15° N
Cosmos 1603 3.7 05:21:24 39° WSW 05:23:08 54° WNW 05:28:44 10° NNE
ATLAS 2AS CENTAUR R/B 4.0 05:17:12 13° NNW 05:23:50 40° NE 05:30:53 10° ESE
Abrixas rocket 2.6 05:24:20 58° ENE 05:24:20 58° ENE 05:27:10 10° ESE
SL-8 R/B 3.6 05:24:22 54° WNW 05:25:19 70° NNW 05:30:05 10° ENE
Cosmos 1464 Rocket 4.0 05:19:06 10° N 05:25:26 83° E 05:31:47 10° S
Meteor 2-3 Rocket 4.5 05:29:44 32° NW 05:29:44 32° NW 05:33:50 10° N
Meteor 1-27 Rocket 3.9 05:24:19 10° N 05:30:11 77° E 05:35:53 10° SSE
Gbstr 26 Del rocket 4.1 05:29:51 28° NNW 05:30:48 31° N 05:34:22 10° ENE
Cosmos 1777 Rocket 3.9 05:27:25 20° NNW 05:31:04 88° WSW 05:36:17 10° SSE
CZ-2C R/B 3.9 05:26:56 10° S 05:31:12 45° W 05:31:17 45° W
Cosmos 2233 Rocket 4.4 05:33:29 29° NW 05:35:29 36° W 05:40:59 10° SSW
Cosmos 2369 Rocket 2.2 05:33:34 28° NW 05:36:26 59° WSW 05:41:55 10° S
CZ-4B R/B 3.7 05:32:17 10° N 05:37:27 37° WNW 05:40:48 20° WSW
NOSS 3-1 (A) 4.2 05:33:22 26° NW 05:37:45 53° WSW 05:45:53 10° SSE
Intercosmos 25 3.6 05:38:43 43° WNW 05:39:08 45° W 05:43:46 10° SSW
Cosmos 1818 4.3 05:35:54 15° NNW 05:40:19 50° NE 05:45:35 10° SE
CZ-3B R/B 3.2 05:41:43 34° ENE 05:41:43 34° ENE 05:42:48 10° ENE
Meteor 1-10 Rocket 4.4 05:35:33 10° NNW 05:41:20 54° W 05:47:04 10° S
Lacrosse 4 Rocket 2.1 05:38:24 10° SSW 05:42:40 56° ESE 05:46:51 10° NE
Lacrosse 5 rocket 2.9 05:42:58 23° NNW 05:43:26 23° NNW 05:47:10 10° NNE
Cosmos 968 Rocket 4.3 05:44:13 29° W 05:44:29 29° W 05:48:57 10° SSW
Cosmos 1869 Rocket 3.9 05:44:41 10° SSW 05:48:49 40° WNW 05:53:01 10° N
Cosmos 2221 Rocket 3.9 05:46:31 22° NNW 05:49:01 43° W 05:53:16 10° SSW
PAYLOAD A 4.1 05:45:01 10° NNE 05:50:21 88° WNW 05:55:46 10° SSW
Cosmos 405 Rocket 3.2 05:53:27 33° WNW 05:53:54 34° W 05:57:20 10° SSW
NOAA 6 4.0 05:49:28 10° N 05:54:31 60° WNW 05:59:32 10° SSW
Aureole 3 2.6 05:51:52 10° S 05:54:50 82° E 05:57:54 10° N
Okean-O 2.7 05:53:43 10° N 05:58:03 52° WNW 06:02:20 10° SSW
PSLV R/B 3.9 05:57:13 28° WSW 05:58:22 40° S 06:01:22 10° ESE
Cosmos 1943 Rocket 2.2 05:54:25 14° NNW 05:59:19 61° WSW 06:04:52 10° S
Cosmos 1782 4.5 06:04:11 17° WSW 06:04:11 17° WSW 06:05:43 10° SW
Cosmos 1513 Rocket 4.5 05:59:57 10° NNW 06:05:51 55° W 06:11:43 10° SSW
Cosmos 1656 Rocket 3.9 06:02:23 10° NNW 06:07:50 70° ENE 06:13:13 10° SSE
COSMO-SKYMED 1 3.2 06:04:38 10° SSW 06:08:36 34° W 06:12:33 10° NNW
Cosmos 332 Rocket 4.3 06:06:01 10° S 06:10:45 63° ESE 06:15:31 10° NNE
COSMOS 2441 4.5 06:08:33 10° NNE 06:13:29 82° ESE 06:18:21 10° SSW
EO 1 Del DPAF 4.4 06:13:40 10° SSW 06:16:50 24° W 06:19:04 15° NW
ATLAS 5 CENTAUR R/B 2.4 06:13:03 12° WSW 06:17:02 37° NW 06:21:48 10° NNE
Cosmos 1674 Rocket 3.5 06:13:04 10° N 06:17:24 87° W 06:21:44 10° S
Thor Agena Rocket 3.4 06:16:37 10° S 06:21:41 78° WSW 06:26:45 10° NNW
SJ-12 3.8 06:18:21 10° N 06:22:29 78° WNW 06:26:33 10° SSW
Cosmos 1943 3.8 06:17:57 10° WSW 06:23:07 35° NW 06:28:18 10° N
SAR-Lupe-3 4.5 06:21:12 10° S 06:24:46 75° WSW 06:28:22 10° NNW
Cosmos 1633 4.2 06:25:27 10° SSE 06:28:47 38° E 06:32:10 10° NNE
IDEFIX/ARIANE 42P 2.9 06:27:53 10° N 06:32:42 40° WNW 06:37:31 10° SW
CZ-2C R/B 2.7 06:29:33 10° N 06:34:31 49° WNW 06:39:21 10° SW
USA 267 4.2 06:29:57 10° E 06:35:49 37° NNE 06:41:40 10° NW
Cosmos 1378 Rocket 3.7 06:31:43 10° N 06:36:12 85° E 06:40:38 10° S
SJ 16-02 4.2 06:36:48 10° NE 06:37:51 11° NE 06:38:55 10° ENE
Cosmos 1634 Rocket 4.1 06:32:16 10° N 06:38:34 90° N 06:44:54 10° S
NOSS 7 (D) 4.3 06:36:45 10° SW 06:40:13 90° NNW 06:43:29 10° NE
Genesis I 4.3 06:37:03 10° WSW 06:40:22 25° NW 06:43:43 10° NNE
Meteor 1-14 Rocket 4.4 06:38:35 10° S 06:44:33 88° W 06:50:28 10° N
AQUARIUS 4.2 06:43:13 10° NNE 06:47:44 90° WNW 06:52:14 10° SSW
Cosmos 1733 Rocket 3.9 06:49:04 10° SW 06:52:50 29° WNW 06:56:41 10° NNW
Meteor 1-18 Rocket 4.3 06:48:19 10° NNW 06:54:01 84° W 06:59:47 10° S
Cosmos 1908 Rocket 3.6 06:49:40 10° SSW 06:54:03 66° W 06:58:27 10° N
